Location: Unspecified
(0.0000°N, 0.0000°E)
Time: 05:56:02
(UTC+00:00)

Vela 1B - Visible Passes

Search period start: 05 December 2021 00:00
Search period end: 15 December 2021 00:00
Orbit: 82418 x 135208 km, 40.8° (Epoch: 22 November)

Date Brightness Start Highest point End Pass type
(mag) Time Alt. Az. Time Alt. Az. Time Alt. Az.
05 Dec ? 00:38:15 10° ENE 06:44:12 56° N 15:19:35 10° NW visible
06 Dec ? 11:53:06 10° E 17:54:12 65° S 00:23:45 10° SW visible
07 Dec ? 18:03:34 10° SE 00:12:09 51° S 05:57:45 10° WSW daylight
08 Dec ? 22:00:27 10° ESE 03:57:33 89° S 10:00:16 10° WNW visible
10 Dec ? 07:07:40 10° NE 14:56:17 72° NNW 21:12:18 10° W visible
11 Dec ? 14:37:05 10° SE 20:41:15 48° S 02:55:57 10° SW visible
12 Dec ? 19:54:19 10° ESE 01:55:57 66° S 07:38:33 10° WSW visible
13 Dec ? 23:50:49 10° ENE 05:53:23 59° NNE 14:06:06 10° NW visible
